Ketchikan, AK

3:17 AM AKST on January 21, 2019 (GMT -0900)
Ketchikan International

Weather History for PAKT - November, 2018

Change the Weather History Date:

Saturday, November 24, 2018

  Actual Average Record
Temperature  
Mean Temperature 44 °F -  
Max Temperature 46 °F 43 °F 56 °F (1954)
Min Temperature 41 °F 33 °F 14 °F (1955)
Degree Days  
Heating Degree Days 22    
Moisture  
Dew Point 40 °F    
Average Humidity 87    
Maximum Humidity 93    
Minimum Humidity 81    
Precipitation  
Precipitation 0.79 in - - ()
Sea Level Pressure  
Sea Level Pressure 29.76 in    
Wind  
Wind Speed 11 mph (SE)    
Max Wind Speed 24 mph    
Max Gust Speed 36 mph    
Visibility 6 miles    
Events Rain    
Averages and records for this station are not official NWS values.
T = Trace of Precipitation, MM = Missing Value Source: NWS Daily Summary

Daily Weather History Graph

Daily Weather History Graph

Search for Another Location

Airport or City:

Astronomy

Nov. 24, 2018 Rise Set
Actual Time 7:38 AM AKST 3:28 PM AKST
Civil Twilight 6:55 AM AKST 4:11 PM AKST
Nautical Twilight 6:08 AM AKST 4:57 PM AKST
Astronomical Twilight 5:25 AM AKST 5:41 PM AKST
Moon 5:07 PM AKST (11/24) 9:06 AM AKST (11/24)
Length of Visible Light 9h 16m
Length of Day
7h 50m
Waning Gibbous, 97% of the Moon is Illuminated
Nov 24
Waning Gibbous
Nov 29
Last Quarter
Dec 6
New
Dec 15
First Quarter
Dec 22
Full

Hourly Weather History & Observations

Time (AKST) Temp. Windchill Dew Point Humidity Pressure Visibility Wind Dir Wind Speed Gust Speed Precip Events Conditions
12:53 AM 42.1 °F 40.2 °F 39.0 °F 89% 29.82 in 10.0 mi South 3.5 mph - N/A   Overcast
1:02 AM 42.1 °F - 39.0 °F 89% 29.82 in 10.0 mi Calm Calm - N/A   Overcast
1:36 AM 41.0 °F 39.0 °F 39.0 °F 93% 29.82 in 10.0 mi South 3.5 mph - N/A   Overcast
1:53 AM 41.0 °F - 39.0 °F 93% 29.83 in 10.0 mi Calm Calm - N/A   Overcast
2:53 AM 42.1 °F 38.4 °F 39.0 °F 89% 29.82 in 10.0 mi SSE 5.8 mph - N/A   Overcast
3:53 AM 41.0 °F 38.0 °F 39.0 °F 93% 29.81 in 6.0 mi South 4.6 mph - 0.00 in Rain Light Rain
4:53 AM 42.1 °F 37.7 °F 39.0 °F 89% 29.81 in 10.0 mi SE 6.9 mph - 0.00 in   Overcast
5:51 AM 42.8 °F 37.5 °F 39.2 °F 87% 29.79 in 10.0 mi SSE 9.2 mph - N/A   Overcast
5:53 AM 43.0 °F 37.7 °F 39.0 °F 86% 29.79 in 10.0 mi SSE 9.2 mph - N/A   Overcast
6:06 AM 42.8 °F 37.0 °F 39.2 °F 87% 29.79 in 5.0 mi SSE 10.4 mph - N/A   Overcast
6:53 AM 42.8 °F 37.0 °F 39.2 °F 87% 29.80 in 4.0 mi SSE 10.4 mph - N/A Rain Light Rain
7:51 AM 44.6 °F 38.8 °F 39.2 °F 81% 29.78 in 9.0 mi SE 11.5 mph - N/A Rain Light Rain
7:53 AM 44.6 °F 38.8 °F 39.2 °F 81% 29.79 in 9.0 mi SE 11.5 mph - N/A Rain Light Rain
8:53 AM 44.6 °F 38.4 °F 39.2 °F 81% 29.78 in 10.0 mi SSE 12.7 mph - N/A   Overcast
9:53 AM 44.6 °F 36.6 °F 39.2 °F 81% 29.78 in 10.0 mi SE 19.6 mph 26.5 mph N/A Rain Light Rain
10:53 AM 44.6 °F 37.4 °F 39.2 °F 81% 29.76 in 10.0 mi SE 16.1 mph 26.5 mph N/A   Overcast
11:53 AM 44.6 °F 36.1 °F 39.2 °F 81% 29.75 in 3.0 mi SE 21.9 mph 27.6 mph N/A Rain Light Rain
12:51 PM 44.6 °F 36.6 °F 39.2 °F 81% 29.73 in 4.0 mi SE 19.6 mph 29.9 mph N/A Rain Light Rain
12:53 PM 44.6 °F 35.9 °F 39.2 °F 81% 29.73 in 4.0 mi SE 23.0 mph 32.2 mph N/A Rain Light Rain
1:51 PM 42.8 °F 34.0 °F 39.2 °F 87% 29.71 in 5.0 mi SE 20.7 mph 32.2 mph N/A Rain Rain
1:53 PM 42.8 °F 33.3 °F 39.2 °F 87% 29.72 in 5.0 mi SE 24.2 mph 33.4 mph N/A Rain Rain
2:51 PM 42.8 °F 33.8 °F 37.4 °F 81% 29.70 in 5.0 mi SE 21.9 mph 31.1 mph N/A Rain Light Rain
2:53 PM 42.8 °F 34.3 °F 37.4 °F 81% 29.70 in 5.0 mi SE 19.6 mph 31.1 mph N/A Rain Light Rain
3:51 PM 42.8 °F 33.5 °F 37.4 °F 81% 29.68 in 5.0 mi SE 23.0 mph 33.4 mph N/A Rain Rain
3:53 PM 42.8 °F 34.0 °F 37.4 °F 81% 29.69 in 5.0 mi SE 20.7 mph 33.4 mph N/A Rain Rain
4:53 PM 42.8 °F 33.3 °F 39.2 °F 87% 29.69 in 3.0 mi SE 24.2 mph 35.7 mph N/A Rain Heavy Rain
5:53 PM 44.6 °F 36.9 °F 41.0 °F 87% 29.70 in 3.0 mi SSE 18.4 mph 32.2 mph N/A Rain Heavy Rain
6:53 PM 45.0 °F 38.5 °F 42.1 °F 90% 29.72 in 3.0 mi SSE 13.8 mph 28.8 mph 0.18 in Rain Rain
7:51 PM 46.4 °F 39.5 °F 42.8 °F 87% 29.73 in 4.0 mi SE 17.3 mph - 0.11 in Rain Light Rain
7:53 PM 46.0 °F 38.8 °F 42.1 °F 86% 29.74 in 5.0 mi SE 18.4 mph 26.5 mph 0.11 in Rain Light Rain
8:53 PM 45.0 °F 38.9 °F 42.1 °F 90% 29.75 in 5.0 mi SSE 12.7 mph - 0.08 in Rain Light Rain
9:10 PM 45.0 °F 39.3 °F 43.0 °F 93% 29.75 in 10.0 mi SSE 11.5 mph - 0.00 in Rain Light Rain
9:18 PM 45.0 °F 38.9 °F 43.0 °F 93% 29.75 in 5.0 mi SSE 12.7 mph - 0.02 in Rain Light Rain
9:38 PM 45.0 °F 38.2 °F 43.0 °F 93% 29.75 in 2.0 mi SE 15.0 mph - 0.07 in Rain Rain
9:53 PM 45.0 °F 37.9 °F 43.0 °F 93% 29.75 in 2.0 mi SE 16.1 mph - 0.11 in Rain Rain
10:26 PM 45.0 °F 38.5 °F 43.0 °F 93% 29.75 in 3.0 mi SE 13.8 mph - 0.08 in Rain Rain
10:35 PM 45.0 °F 40.1 °F 43.0 °F 93% 29.75 in 2.5 mi SSE 9.2 mph - 0.12 in Rain Rain
10:53 PM 45.0 °F 38.9 °F 43.0 °F 93% 29.76 in 2.5 mi SSE 12.7 mph 19.6 mph 0.17 in Rain Rain
11:07 PM 46.0 °F 40.2 °F 43.0 °F 89% 29.75 in 3.0 mi SE 12.7 mph - 0.04 in Rain Rain
11:35 PM 46.0 °F 39.6 °F 43.0 °F 89% 29.75 in 2.0 mi SE 15.0 mph 21.9 mph 0.09 in Rain Rain
11:51 PM 46.4 °F 40.4 °F 42.8 °F 87% 29.75 in 1.8 mi SE 13.8 mph - 0.14 in Rain Rain
11:53 PM 46.0 °F 39.9 °F 43.0 °F 89% 29.75 in 1.8 mi SE 13.8 mph - 0.14 in Rain Rain